Date,TemperatureHighF,TemperatureAvgF,TemperatureLowF,DewpointHighF,DewpointAvgF,DewpointLowF,HumidityHigh,HumidityAvg,HumidityLow,PressureMaxIn,PressureMinIn,WindSpeedMaxMPH,WindSpeedAvgMPH,GustSpeedMaxMPH,PrecipitationSumIn
2013-1-1,50.9,47.3,42.4,50.6,43.0,30.9,99,87,53,29.90,29.75,4,0,4,0.27
2013-1-2,50.5,46.0,41.4,50.3,44.5,40.1,99,95,83,30.00,29.72,6,0,6,0.21
2013-1-3,46.6,41.2,32.4,40.9,38.7,32.1,99,91,72,30.06,29.94,3,0,3,0.00
2013-1-4,53.2,39.5,27.7,35.9,28.9,24.5,99,70,36,30.12,30.00,6,1,6,0.00
2013-1-5,50.7,39.2,27.3,34.1,28.6,23.8,88,67,44,30.20,30.07,4,0,4,0.00
2013-1-6,50.0,43.1,37.6,42.0,38.9,32.7,99,86,70,30.07,29.86,3,0,3,0.01
2013-1-7,54.9,41.5,31.5,38.6,34.7,31.2,99,79,51,30.24,29.98,4,0,4,0.00
2013-1-8,59.5,44.9,33.1,45.2,39.2,31.0,96,81,58,30.27,30.17,3,0,3,0.00
2013-1-9,68.9,52.2,37.9,53.8,46.8,37.7,99,84,58,30.26,30.16,4,0,4,0.00
2013-1-10,67.5,55.5,48.4,51.8,48.4,39.9,99,78,54,30.34,30.21,3,0,3,0.00
2013-1-11,51.8,48.1,42.6,51.5,45.3,36.2,99,91,60,30.24,29.96,2,0,2,0.28
2013-1-12,49.8,49.7,49.5,49.6,49.5,49.2,99,99,99,29.97,29.94,1,0,1,0.00
2013-1-13,76.5,64.7,55.4,67.1,61.0,55.1,99,89,66,29.95,29.85,4,1,4,0.00
2013-1-14,71.1,65.1,60.3,66.5,62.8,59.1,99,92,83,29.96,29.88,3,0,3,0.00
2013-1-15,65.8,48.9,46.6,63.8,48.5,46.3,99,98,90,30.03,29.86,3,0,3,0.01
2013-1-16,50.7,47.3,44.6,50.4,47.0,44.3,99,99,99,29.89,29.78,2,0,2,0.14
2013-1-17,51.4,47.3,33.4,51.2,47.1,33.2,99,99,99,29.96,29.68,6,1,6,0.80
2013-1-18,52.0,37.4,30.2,37.7,32.1,28.8,99,84,46,30.34,29.95,4,0,4,0.18
2013-1-19,57.2,41.1,27.7,37.4,31.7,26.4,97,72,38,30.31,29.96,4,0,4,0.00
2013-1-20,68.0,49.5,38.1,41.2,36.4,33.0,84,64,31,29.96,29.79,8,1,8,0.00
2013-1-21,63.9,46.6,32.4,40.6,31.8,21.7,95,61,30,29.89,29.68,5,0,5,0.00
2013-1-22,45.0,35.6,28.0,24.7,9.0,-7.5,54,35,13,30.09,29.76,8,1,8,0.00
2013-1-23,43.5,31.2,20.7,19.9,12.3,3.7,68,47,25,30.19,29.85,6,1,6,0.00
2013-1-24,40.6,33.0,26.1,27.4,16.0,2.3,83,52,24,30.31,29.77,13,1,13,0.00
2013-1-25,27.3,25.2,22.3,26.6,16.4,6.0,99,72,44,30.34,29.91,2,0,2,0.04
2013-1-26,42.8,31.4,26.6,37.6,30.0,26.4,99,95,76,30.20,29.90,4,0,4,0.08
2013-1-27,44.1,33.4,25.2,32.6,29.2,24.9,99,86,61,30.40,30.20,2,0,2,0.01
2013-1-28,52.2,42.8,33.4,48.4,38.7,30.0,98,86,71,30.31,30.04,3,0,3,0.02
2013-1-29,51.4,51.3,51.1,48.9,48.7,48.1,92,91,90,30.05,30.04,3,2,3,0.00
2013-1-30,72.3,67.6,60.8,67.0,64.4,59.1,99,90,77,29.88,29.21,11,4,11,0.17
2013-1-31,62.8,47.6,34.9,62.5,33.2,22.2,99,61,33,29.83,29.29,13,3,13,0.07
2013-2-1,41.4,36.6,26.4,30.9,15.3,0.6,70,44,20,30.19,29.70,14,2,14,0.00
2013-2-2,46.2,34.5,20.3,38.4,15.9,9.0,86,49,26,30.21,29.83,7,0,7,0.00
2013-2-3,51.6,42.7,33.3,38.7,32.6,26.4,95,70,44,29.83,29.66,9,1,9,0.00
2013-2-4,50.7,38.7,27.3,29.6,26.3,23.4,87,63,37,29.96,29.79,5,1,5,0.00
2013-2-5,64.2,48.3,37.6,38.6,34.8,29.1,81,61,34,29.82,29.68,8,1,8,0.00
2013-2-6,67.1,48.3,34.2,42.0,31.8,19.3,96,59,17,30.08,29.77,7,0,7,0.00
2013-2-7,50.0,44.1,38.1,44.7,39.9,33.2,99,86,62,30.12,29.78,4,0,4,0.30
2013-2-8,57.9,46.3,39.9,49.2,42.3,30.9,99,87,62,29.86,29.61,8,2,8,0.37
2013-2-9,55.9,41.0,29.1,32.9,26.4,18.8,96,61,25,30.16,29.85,8,1,8,0.00
2013-2-10,54.3,42.0,28.2,42.9,26.4,21.5,93,58,28,30.29,30.01,4,1,4,0.04
2013-2-11,63.3,57.4,45.0,62.9,56.6,43.1,99,97,92,30.01,29.73,7,2,7,0.02
2013-2-12,62.8,54.0,46.6,56.8,40.9,29.5,99,65,31,29.89,29.70,6,1,6,0.00
2013-2-13,50.4,46.8,43.7,47.8,45.4,38.9,99,95,65,29.76,29.43,8,0,8,0.07
2013-2-14,53.2,42.4,32.4,40.1,36.0,32.1,99,80,55,29.88,29.64,4,0,4,0.00
2013-2-15,65.1,45.9,32.0,44.7,36.1,31.8,99,73,34,29.90,29.73,5,0,5,0.00
2013-2-16,46.2,37.3,31.5,38.6,34.2,28.1,99,89,71,29.78,29.63,6,0,6,0.18
2013-2-17,38.7,30.9,25.0,28.3,17.6,11.0,88,60,33,30.09,29.72,0,0,0,0.01
2013-2-18,54.0,36.5,20.3,28.3,21.3,16.6,90,58,28,30.22,30.05,12,1,12,0.15
2013-2-19,52.5,43.9,35.8,52.3,40.9,28.0,99,89,66,30.06,29.66,8,1,8,0.09
2013-2-20,53.6,41.6,29.8,40.4,25.3,15.1,99,57,23,29.94,29.77,9,1,9,0.00
2013-2-21,56.3,41.8,26.8,25.8,21.7,14.9,80,48,20,30.06,29.91,7,1,7,0.00
2013-2-22,44.2,37.0,32.9,37.1,34.5,24.6,99,92,47,30.15,29.93,3,0,3,0.45
2013-2-23,43.9,40.3,26.2,43.4,40.0,26.0,99,99,99,29.93,29.62,6,0,6,0.74
2013-2-24,63.7,49.8,40.8,50.2,41.2,29.3,99,76,30,29.84,29.59,8,1,8,0.07
2013-2-25,44.1,39.4,34.9,34.0,28.4,24.4,80,65,52,30.03,29.84,4,0,4,0.00
2013-2-26,59.7,46.4,36.5,59.5,44.1,-18.3,99,92,68,29.94,29.35,6,1,6,0.81
2013-2-27,60.6,49.4,42.3,46.1,43.3,40.6,99,82,51,29.60,29.43,8,1,8,0.01
2013-2-28,50.5,42.6,34.9,41.8,35.1,29.4,99,77,46,29.66,29.50,11,1,11,0.00
2013-3-1,50.4,40.0,28.8,35.1,31.4,27.9,98,73,49,29.72,29.64,8,1,8,0.00
2013-3-2,50.4,39.2,29.1,34.0,28.6,3.1,94,68,27,29.73,29.60,9,1,9,0.00
2013-3-3,47.5,36.2,26.6,25.7,22.8,-9.4,84,60,40,29.78,29.65,9,1,9,0.00
2013-3-4,51.6,36.8,24.4,24.1,19.9,15.1,83,54,24,29.92,29.78,9,1,9,0.00
2013-3-5,50.7,43.4,35.8,46.0,37.1,23.8,99,80,48,29.89,29.35,4,0,4,0.30
2013-3-6,49.6,43.7,38.3,49.0,35.8,29.3,99,75,54,29.83,29.31,17,4,17,0.01
2013-3-7,52.9,42.8,31.5,35.6,31.8,28.0,93,66,48,30.03,29.82,10,1,10,0.00
2013-3-8,56.7,43.9,29.7,31.5,28.1,25.3,90,57,32,30.09,29.95,13,2,13,0.00
2013-3-9,64.0,47.1,32.2,33.9,30.7,27.4,86,56,27,30.14,30.03,7,0,7,0.00
2013-3-10,69.3,51.7,33.8,36.4,29.1,20.0,92,50,17,30.13,30.01,4,1,4,0.00
2013-3-11,70.5,57.2,43.0,56.7,46.7,26.5,91,69,38,30.05,29.74,8,2,8,0.00
2013-3-12,73.2,62.6,51.8,65.8,56.3,35.7,99,82,52,29.75,29.55,11,2,11,0.19
2013-3-13,60.4,48.1,35.8,37.6,30.0,22.4,90,53,28,29.93,29.75,11,2,11,0.00
2013-3-14,53.6,42.4,31.8,27.0,22.1,19.4,67,46,27,30.05,29.91,10,2,10,0.00
2013-3-15,63.3,46.8,28.8,38.4,30.8,24.3,86,57,32,29.99,29.70,8,1,8,0.00
2013-3-16,79.3,63.4,49.5,52.0,46.6,37.3,76,56,36,29.71,29.47,8,2,8,0.00
2013-3-17,63.3,54.0,43.2,55.2,47.7,40.6,98,80,64,29.97,29.63,4,1,4,0.00
2013-3-18,45.0,42.0,39.2,44.5,41.7,-18.3,99,99,93,30.00,29.66,7,0,7,0.38
2013-3-19,67.6,52.6,41.5,51.0,36.8,15.1,99,65,19,29.82,29.62,12,2,12,0.01
2013-3-20,56.3,48.2,40.3,27.2,18.0,8.9,54,31,19,29.92,29.58,7,1,7,0.00
2013-3-21,48.4,40.6,32.4,33.9,22.1,13.7,81,50,28,29.78,29.53,11,2,11,0.00
2013-3-22,53.2,38.5,24.3,27.1,17.9,13.2,76,46,23,29.89,29.76,8,1,8,0.00
2013-3-23,55.8,46.0,38.8,34.4,29.9,25.4,74,55,36,29.85,29.70,3,0,3,0.00
2013-3-24,45.0,40.0,37.2,40.6,37.5,31.3,99,91,69,29.74,29.37,5,0,5,0.61
2013-3-25,48.7,41.6,36.7,41.3,33.6,26.2,99,77,44,29.62,29.35,14,2,14,0.01
2013-3-26,51.4,42.8,32.0,33.1,30.1,27.2,87,62,45,29.91,29.62,8,2,8,0.00
2013-3-27,54.7,43.1,33.8,31.3,27.4,22.5,83,56,30,30.03,29.91,13,2,13,0.00
2013-3-28,60.3,43.4,29.3,31.6,27.4,25.1,89,57,27,30.09,29.94,11,2,11,0.00
2013-3-29,61.5,46.2,30.7,35.1,29.4,24.9,90,56,25,30.14,29.98,8,1,8,0.00
2013-3-30,68.0,54.3,42.1,47.1,39.4,30.4,82,59,29,30.05,29.88,4,0,4,0.00
2013-3-31,70.0,57.4,48.2,62.3,53.7,21.2,99,88,67,29.91,29.61,9,1,9,0.44
2013-4-1,76.1,61.6,54.5,57.2,49.7,41.3,99,71,30,29.76,29.61,11,1,11,0.02
2013-4-2,66.7,51.2,38.3,42.4,32.5,24.8,82,51,24,29.97,29.76,8,1,8,0.00
2013-4-3,65.1,51.8,43.5,34.0,10.1,-3.7,59,23,10,30.09,29.93,129,1,129,0.00
2013-4-4,49.1,43.8,40.1,17.7,11.3,2.1,37,27,16,30.15,29.71,5,1,5,0.73
2013-4-5,69.6,49.4,40.1,26.4,20.5,16.1,38,32,18,29.82,29.67,5,1,5,0.02
2013-4-6,71.2,54.7,41.9,20.3,12.3,4.3,36,20,10,30.07,29.81,4,1,4,0.00
2013-4-7,75.0,57.0,37.8,24.2,17.0,10.7,33,22,12,30.09,29.91,6,1,6,0.00
2013-4-8,83.1,66.8,52.9,33.8,28.8,23.9,36,25,14,29.99,29.84,7,1,7,0.00
2013-4-9,90.0,72.0,58.1,36.5,32.7,30.0,36,25,13,30.00,29.84,6,1,6,0.00
2013-4-10,92.3,74.8,61.3,38.1,34.4,31.8,34,24,13,29.91,29.73,7,1,7,0.00
2013-4-11,85.3,72.7,62.6,41.3,36.0,32.1,35,27,16,29.81,29.59,7,2,7,0.00
2013-4-12,86.7,72.4,64.2,45.6,38.9,27.8,37,30,19,29.62,29.40,10,2,10,0.30
2013-4-13,82.8,64.9,52.0,28.2,19.8,14.5,27,18,10,29.80,29.56,6,1,6,0.00
2013-4-14,81.9,66.0,48.4,28.9,21.9,16.5,34,21,10,29.91,29.80,4,0,4,0.00
2013-4-15,72.1,66.0,60.3,34.0,31.9,27.2,34,28,23,30.00,29.81,3,0,3,0.02
2013-4-16,80.1,67.0,58.5,37.8,34.1,18.7,37,30,20,30.10,29.99,2,0,2,0.00
2013-4-17,87.6,70.7,3.9,40.7,36.6,-16.4,37,29,10,30.04,29.90,6,0,6,0.00
2013-4-18,84.0,71.1,61.7,38.6,35.4,32.3,35,28,18,30.00,29.83,6,1,6,0.00
2013-4-19,84.7,72.2,65.3,42.8,39.9,36.1,38,32,22,29.85,29.51,15,2,15,0.37
2013-4-20,71.8,56.9,48.9,39.2,19.6,12.0,38,24,11,30.08,29.63,8,1,8,0.05
2013-4-21,68.7,53.4,43.5,20.8,18.3,15.6,35,26,16,30.30,30.08,4,0,4,0.00
2013-4-22,65.1,51.7,39.4,22.0,16.6,9.3,32,25,16,30.27,30.05,7,1,7,0.00
2013-4-23,77.2,56.6,48.0,29.0,24.5,21.2,36,29,17,30.08,29.92,4,0,4,0.02
2013-4-24,80.2,64.2,50.7,33.3,29.3,24.2,37,28,17,29.97,29.78,7,1,7,0.00
2013-4-25,82.6,63.0,54.0,32.3,23.9,16.2,34,23,10,30.07,29.81,8,0,8,0.00
2013-4-26,80.2,61.9,50.5,28.3,21.2,11.8,36,23,10,30.23,30.07,4,0,4,0.00
2013-4-27,75.6,63.3,9.3,28.8,23.1,-18.3,29,22,13,30.19,30.06,49,0,49,0.00
2013-4-28,62.6,58.4,55.0,31.4,27.3,21.0,38,30,24,30.08,29.91,2,0,2,0.67
2013-4-29,81.9,64.0,56.1,41.4,35.9,30.7,39,35,22,29.91,29.76,2,0,2,0.92
2013-4-30,73.8,62.6,57.0,37.7,34.6,29.8,38,35,26,29.98,29.79,4,0,4,0.00
2013-5-1,63.3,59.9,56.8,34.3,32.4,30.2,37,35,33,30.12,29.96,5,0,5,0.01
2013-5-2,66.0,60.5,55.2,33.9,31.7,28.5,36,34,30,30.13,30.06,2,0,2,0.00
2013-5-3,72.5,60.1,50.5,32.5,27.2,-18.3,36,29,21,30.07,29.96,3,0,3,0.24
2013-5-4,72.9,58.1,51.3,29.6,25.4,20.8,33,29,20,30.02,29.87,4,1,4,0.00
2013-5-5,61.9,57.2,51.6,31.8,27.8,22.7,34,32,30,29.91,29.78,3,0,3,0.00
2013-5-6,74.3,61.9,57.6,42.6,34.9,30.5,38,36,29,29.80,29.63,2,0,2,0.73
2013-5-7,79.3,60.6,52.3,35.8,29.5,25.7,38,32,15,29.76,29.66,4,0,4,0.00
2013-5-8,74.3,62.4,53.6,35.2,31.9,26.6,38,32,23,29.82,29.73,6,0,6,0.25
2013-5-9,88.5,67.1,54.9,38.3,34.0,29.6,39,31,16,29.88,29.78,4,0,4,0.01
2013-5-10,91.0,72.3,58.1,39.5,35.5,30.9,36,27,15,29.87,29.73,4,0,4,0.04
2013-5-11,86.7,73.5,67.8,41.9,38.2,34.3,35,28,18,29.76,29.59,5,1,5,0.01
2013-5-12,81.1,69.1,58.3,38.8,24.0,13.5,34,19,11,29.84,29.59,8,1,8,0.01
2013-5-13,75.6,58.5,47.3,19.4,15.5,8.8,30,19,10,29.99,29.84,7,0,7,0.00
2013-5-14,79.5,58.8,42.6,23.4,18.2,14.1,34,22,10,30.07,29.89,4,0,4,0.00
2013-5-15,96.6,71.6,55.2,38.4,31.1,19.7,31,23,13,29.89,29.69,3,0,3,0.00
2013-5-16,89.6,74.8,63.9,40.4,36.8,33.6,34,26,15,29.79,29.70,4,0,4,0.00
2013-5-17,96.4,76.2,63.7,40.9,37.7,34.1,36,26,12,29.88,29.79,2,0,2,0.00
2013-5-18,81.3,71.5,64.8,44.8,39.9,35.8,38,32,25,29.95,29.87,3,0,3,0.81
2013-5-19,84.9,71.0,66.6,46.6,42.1,39.8,39,35,22,29.95,29.85,3,0,3,0.26
2013-5-20,77.2,70.6,67.5,47.2,43.3,41.3,39,37,33,29.92,29.83,2,0,2,0.47
2013-5-21,90.0,74.1,68.5,49.0,44.0,41.4,38,34,23,29.87,29.75,3,0,3,0.09
2013-5-22,87.6,75.4,68.5,45.6,42.6,39.6,38,31,21,29.84,29.70,3,0,3,0.00
2013-5-23,83.5,74.3,69.6,44.4,42.6,41.3,37,32,23,29.77,29.62,4,0,4,0.00
2013-5-24,76.3,67.0,54.5,42.5,29.9,17.2,37,26,12,30.00,29.61,9,1,9,0.00
2013-5-25,82.6,59.9,44.8,27.6,19.9,11.4,34,23,10,30.09,29.94,5,0,5,0.00
2013-5-26,81.7,62.9,51.1,30.2,23.8,18.3,31,23,11,30.09,29.98,4,0,4,0.00
2013-5-27,90.9,68.7,53.8,34.0,28.9,24.7,35,24,10,30.09,29.95,3,0,3,0.00
2013-5-28,88.2,74.0,62.4,42.3,37.9,32.6,36,28,19,30.06,29.94,4,0,4,0.00
2013-5-29,93.6,75.4,63.9,41.6,38.7,35.8,36,27,16,30.06,29.96,4,0,4,0.00
2013-5-30,96.1,76.4,64.6,43.0,39.3,35.9,37,27,13,30.08,29.97,4,0,4,0.00
2013-5-31,96.3,78.4,66.9,44.1,41.6,38.7,37,28,15,30.03,29.90,3,0,3,0.00
2013-6-1,95.7,78.5,67.8,44.9,41.3,38.1,37,28,15,29.95,29.83,5,0,5,0.00
2013-6-2,95.4,78.3,68.7,44.2,41.6,39.1,36,28,16,29.87,29.70,4,1,4,0.01
2013-6-3,83.8,73.9,67.3,49.2,44.6,39.4,38,35,27,29.76,29.62,8,0,8,0.30
2013-6-4,72.1,67.6,65.5,44.2,40.8,39.2,39,38,32,29.87,29.73,2,0,2,0.00
2013-6-5,86.7,74.1,65.7,39.6,36.1,32.3,34,26,16,29.94,29.81,2,0,2,0.00
2013-6-6,78.3,71.2,65.5,46.6,41.4,33.4,38,34,25,29.84,29.63,3,0,3,0.51
2013-6-7,76.1,71.0,69.6,49.2,44.8,42.9,39,39,38,29.65,29.28,11,0,11,2.50
2013-6-8,92.8,74.6,67.8,47.7,44.2,42.0,40,34,20,29.89,29.62,4,0,4,0.06
2013-6-9,90.9,77.0,68.9,48.1,44.9,41.6,39,33,21,29.97,29.85,4,0,4,0.20
2013-6-10,88.3,75.1,71.2,50.7,46.7,44.4,39,37,27,29.91,29.70,4,1,4,0.30
2013-6-11,91.8,76.9,70.3,45.6,42.8,-0.7,38,30,17,29.76,29.69,5,0,5,0.00
2013-6-12,99.5,78.5,65.8,49.6,44.5,38.9,38,31,18,29.79,29.67,3,0,3,0.00
2013-6-13,101.5,81.8,68.2,51.3,46.8,40.9,38,31,15,29.67,29.41,14,0,14,0.17
2013-6-14,87.1,71.9,60.8,42.1,35.5,30.4,38,27,16,29.81,29.54,8,1,8,0.00
2013-6-15,94.5,73.4,60.6,41.1,36.8,32.6,37,28,13,29.93,29.81,4,0,4,0.00
2013-6-16,95.2,76.7,63.1,44.8,39.0,31.4,32,26,17,29.94,29.80,5,0,5,0.00
2013-6-17,94.8,77.9,71.1,48.2,43.1,38.9,34,29,19,29.84,29.73,2,0,2,0.00
2013-6-18,87.8,75.5,70.0,48.5,44.6,41.8,38,33,24,29.78,29.55,5,0,5,0.76
2013-6-19,87.1,73.5,66.2,45.4,42.3,40.2,39,33,23,29.91,29.67,2,0,2,0.01
2013-6-20,90.7,74.5,65.5,40.9,38.6,32.6,37,28,16,30.04,29.91,2,0,2,0.00
2013-6-21,94.1,73.7,59.2,40.5,34.5,26.8,35,25,12,30.06,29.97,4,0,4,0.00
2013-6-22,86.0,75.1,71.1,46.5,43.3,40.4,36,32,24,30.01,29.91,4,0,4,0.00
2013-6-23,93.4,76.3,69.6,49.2,45.4,41.8,38,34,20,30.01,29.92,2,0,2,0.08
2013-6-24,88.3,77.5,70.9,50.4,47.0,44.0,39,34,25,30.01,29.90,3,0,3,0.00
2013-6-25,94.5,76.9,69.8,50.8,45.1,17.1,38,33,10,29.94,29.82,5,0,5,0.00
2013-6-26,91.9,76.8,69.3,50.8,45.4,40.0,38,33,23,29.85,29.70,8,0,8,0.31
2013-6-27,95.7,77.6,67.8,51.6,46.6,41.3,39,34,21,29.74,29.52,3,0,3,0.00
2013-6-28,96.6,79.3,71.2,50.0,46.8,42.2,38,33,20,29.56,29.38,10,0,10,0.61
2013-6-29,89.8,76.4,69.3,50.8,46.6,43.3,40,35,25,29.53,29.42,2,0,2,0.34
2013-6-30,86.9,76.4,70.9,50.2,46.6,42.7,39,35,27,29.67,29.52,5,0,5,0.28
2013-7-1,85.1,75.5,71.1,50.8,46.9,44.9,39,36,29,29.80,29.65,4,0,4,0.22
2013-7-2,77.2,73.9,71.8,48.3,46.7,44.8,39,38,35,29.98,29.79,3,0,3,0.35
2013-7-3,85.5,77.2,73.4,51.3,48.4,43.7,39,36,29,30.05,29.96,5,0,5,0.21
2013-7-4,93.7,80.1,73.4,49.8,47.2,44.1,39,32,19,30.08,29.97,4,0,4,0.02
2013-7-5,93.7,80.8,73.2,50.4,47.4,45.2,38,32,21,30.09,29.96,4,0,4,0.00
2013-7-6,95.5,79.6,73.8,51.0,47.3,43.7,38,33,20,30.07,29.92,3,0,3,0.00
2013-7-7,93.9,79.5,71.2,50.7,46.8,43.2,38,32,22,30.00,29.86,3,0,3,0.00
2013-7-8,97.3,80.1,72.3,50.1,47.3,43.2,37,32,20,29.98,29.89,4,0,4,0.00
2013-7-9,87.8,77.1,72.3,52.5,47.3,43.9,38,35,26,29.97,29.87,4,0,4,0.01
2013-7-10,93.6,78.7,72.9,51.8,48.0,45.1,38,34,23,29.92,29.75,3,0,3,0.00
2013-7-11,83.7,76.0,72.3,49.6,47.0,45.7,39,36,30,29.79,29.68,3,0,3,0.28
2013-7-12,78.3,73.5,72.0,48.9,46.2,44.1,40,38,33,29.83,29.68,3,0,3,0.08
2013-7-13,79.0,74.1,71.6,51.2,47.0,44.0,39,38,37,29.97,29.82,2,0,2,0.19
2013-7-14,88.2,77.7,70.7,51.3,47.7,44.6,40,35,24,30.10,29.97,4,0,4,0.01
2013-7-15,95.0,79.5,70.9,51.1,47.0,44.2,39,33,20,30.12,30.04,2,0,2,0.01
2013-7-16,102.4,80.2,70.7,51.6,46.9,43.1,39,32,17,30.09,29.97,6,0,6,0.12
2013-7-17,96.6,82.0,73.9,53.2,49.4,46.8,39,33,21,30.03,29.90,2,0,2,0.00
2013-7-18,99.9,82.4,75.4,52.9,49.9,47.9,38,33,19,29.94,29.84,3,0,3,0.02
2013-7-19,95.2,82.0,75.2,52.4,49.1,46.0,38,32,22,29.91,29.78,3,0,3,0.00
2013-7-20,96.8,80.8,75.2,51.8,48.2,46.4,36,32,21,29.85,29.72,2,0,2,0.00
2013-7-21,96.1,79.4,73.4,51.2,47.6,44.7,38,33,21,29.81,29.70,4,0,4,0.04
2013-7-22,96.1,78.9,72.1,51.6,47.8,45.5,39,34,22,29.76,29.63,2,0,2,0.00
2013-7-23,97.9,81.2,74.7,49.5,47.4,45.3,37,31,19,29.66,29.52,5,0,5,0.00
2013-7-24,99.0,81.2,71.6,49.0,46.3,44.0,38,30,17,29.65,29.53,4,0,4,0.00
2013-7-25,82.6,74.8,69.3,45.6,43.7,40.9,38,33,25,29.83,29.62,4,0,4,0.04
2013-7-26,93.9,74.8,64.4,44.0,40.6,38.1,38,30,16,29.91,29.82,2,0,2,0.00
2013-7-27,86.4,75.3,69.4,47.1,43.5,40.8,39,33,21,29.86,29.74,4,0,4,0.25
2013-7-28,93.2,77.6,69.6,49.0,46.0,43.6,39,33,20,29.80,29.72,2,0,2,0.01
2013-7-29,95.0,77.4,70.2,47.0,43.7,40.5,38,31,17,29.95,29.80,4,0,4,0.05
2013-7-30,89.4,75.5,64.2,44.8,41.2,37.4,37,30,20,30.03,29.93,4,0,4,0.00
2013-7-31,84.2,77.7,70.5,48.9,45.7,42.2,37,32,27,29.95,29.81,2,0,2,0.11
2013-8-1,90.3,75.2,70.5,51.6,46.6,42.3,39,36,25,29.83,29.66,2,0,2,0.20
2013-8-2,93.9,77.4,68.5,48.6,45.4,42.6,39,33,19,29.82,29.71,3,0,3,0.01
2013-8-3,96.8,79.5,72.9,51.6,48.2,44.9,39,34,20,29.83,29.70,2,0,2,0.32
2013-8-4,90.0,76.2,70.0,49.6,43.5,36.0,40,32,17,29.83,29.70,8,0,8,0.00
2013-8-5,86.9,74.5,66.0,43.0,39.8,36.4,37,29,20,29.89,29.80,2,0,2,0.00
2013-8-6,78.3,71.4,68.2,45.9,41.4,38.9,38,34,29,29.86,29.81,2,0,2,0.18
2013-8-7,86.9,77.2,69.6,47.1,44.1,41.5,36,31,23,29.91,29.82,2,0,2,0.00
2013-8-8,95.2,79.8,72.1,48.6,46.2,43.6,38,31,19,29.88,29.79,2,0,2,0.00
2013-8-9,96.3,81.5,74.8,51.3,48.4,45.6,38,32,21,29.86,29.78,3,0,3,0.00
2013-8-10,96.4,80.2,73.6,52.6,48.9,46.4,39,34,22,29.91,29.80,4,0,4,0.07
2013-8-11,98.4,80.5,72.0,51.8,48.5,45.7,39,33,20,29.92,29.81,2,0,2,0.00
2013-8-12,99.9,81.9,74.7,50.8,47.8,45.0,39,31,17,29.85,29.74,4,0,4,0.00
2013-8-13,92.1,78.7,71.6,52.7,48.2,44.5,39,35,25,29.78,29.57,3,0,3,0.18
2013-8-14,77.7,73.2,64.9,47.9,41.8,34.2,39,32,28,29.89,29.63,4,0,4,0.00
2013-8-15,78.3,67.6,61.7,37.3,34.6,32.6,34,30,21,29.97,29.86,3,0,3,0.00
2013-8-16,71.1,66.6,60.6,37.5,35.9,33.7,37,32,28,29.98,29.89,3,0,3,0.00
2013-8-17,72.0,68.6,65.1,45.7,41.1,9.0,39,37,32,29.97,29.91,2,0,2,0.26
2013-8-18,84.0,74.1,69.3,46.8,44.3,40.5,40,35,26,30.00,29.91,4,0,4,0.01
2013-8-19,73.6,70.5,67.8,46.8,43.7,40.1,39,38,34,30.00,29.90,2,0,2,0.18
2013-8-20,83.8,75.4,69.6,49.4,46.5,44.1,40,36,28,29.99,29.91,2,0,2,0.00
2013-8-21,87.1,75.7,70.5,50.4,47.0,43.2,39,36,27,30.03,29.91,5,0,5,0.21
2013-8-22,96.6,77.8,70.3,51.8,46.8,43.5,40,34,18,29.97,29.79,2,0,2,0.00
2013-8-23,92.1,77.6,69.3,48.4,45.5,42.2,39,33,21,29.87,29.72,5,0,5,0.00
2013-8-24,90.0,73.5,66.4,42.6,38.2,35.3,36,28,16,30.09,29.79,4,0,4,0.00
2013-8-25,86.5,70.4,61.3,40.2,36.2,31.8,38,29,15,30.19,30.07,4,0,4,0.00
2013-8-26,90.3,69.2,57.4,37.9,34.8,31.3,38,29,14,30.12,29.91,3,0,3,0.00
2013-8-27,90.1,74.3,63.1,47.8,41.1,34.3,36,31,22,29.93,29.76,4,0,4,0.00
2013-8-28,84.6,77.3,70.3,50.5,47.3,43.6,39,35,28,29.79,29.68,2,0,2,0.00
2013-8-29,93.4,79.8,72.3,49.3,47.1,44.8,38,32,20,29.82,29.65,5,0,5,0.02
2013-8-30,92.8,75.7,66.2,45.3,42.6,38.3,39,32,16,29.87,29.74,2,0,2,0.00
2013-8-31,90.9,77.3,68.9,48.1,44.6,40.6,39,32,20,29.78,29.66,3,0,3,0.00
2013-9-1,92.5,78.5,71.1,52.4,47.3,43.9,39,34,23,29.71,29.58,9,0,9,0.74
2013-9-2,89.4,77.1,70.5,51.5,47.6,44.4,40,36,24,29.70,29.60,2,0,2,0.00
2013-9-3,86.7,78.5,72.7,50.5,48.0,44.5,39,35,27,29.75,29.60,2,0,2,0.00
2013-9-4,86.4,76.3,68.5,47.2,44.4,39.1,39,32,24,29.89,29.74,2,0,2,0.00
2013-9-5,88.3,75.9,68.2,45.6,41.1,30.9,39,30,15,29.90,29.82,4,0,4,0.00
2013-9-6,82.2,72.4,65.8,41.0,37.4,33.5,35,28,20,29.98,29.88,4,0,4,0.00
2013-9-7,82.4,71.4,61.2,41.4,38.0,34.5,37,30,21,29.94,29.77,2,0,2,0.00
2013-9-8,88.0,74.7,64.0,41.5,38.4,34.0,37,28,15,29.79,29.70,4,0,4,0.00
2013-9-9,88.2,76.3,66.0,44.6,41.6,37.8,36,29,21,29.96,29.79,2,0,2,0.00
2013-9-10,89.1,78.2,69.1,47.1,43.6,40.9,38,30,19,30.04,29.94,2,0,2,0.00
2013-9-11,88.9,77.4,68.7,47.6,43.5,41.3,37,30,21,30.02,29.88,3,0,3,0.00
2013-9-12,89.4,76.7,70.3,47.6,44.4,41.6,39,32,23,29.89,29.61,11,0,11,0.20
2013-9-13,83.8,74.8,69.4,45.4,39.7,29.4,39,29,18,29.69,29.55,6,0,6,0.00
2013-9-14,76.5,67.8,61.0,32.7,29.2,25.9,31,24,17,29.93,29.68,8,0,8,0.00
2013-9-15,79.7,68.4,57.4,38.3,34.0,28.9,36,29,20,30.04,29.91,2,0,2,0.00
2013-9-16,83.7,74.2,68.4,47.9,40.3,35.4,39,30,19,29.99,29.83,5,0,5,0.32
2013-9-17,75.9,67.9,61.7,35.9,32.0,28.3,33,27,19,30.12,29.99,4,0,4,0.00
2013-9-18,73.2,62.3,52.2,31.4,28.5,25.4,36,28,18,30.11,29.97,4,0,4,0.00
2013-9-19,76.5,66.2,55.4,38.8,34.0,28.2,36,31,23,30.00,29.88,2,0,2,0.00
2013-9-20,73.6,67.2,63.9,41.8,38.7,13.7,39,35,10,29.89,29.78,2,0,2,0.25
2013-9-21,78.1,70.7,65.8,46.0,43.1,-18.3,39,37,31,29.78,29.53,4,0,4,0.56
2013-9-22,75.7,67.6,61.2,41.8,37.8,-20.1,40,34,23,29.70,29.50,49,0,49,0.61
2013-9-23,72.1,62.7,55.8,33.6,30.9,27.8,37,31,22,29.88,29.70,4,0,4,0.00
2013-9-24,73.6,63.6,56.3,36.9,32.9,29.5,37,32,24,29.91,29.75,3,0,3,0.00
2013-9-25,73.0,64.3,56.3,38.5,34.9,30.4,38,34,25,29.77,29.67,2,0,2,0.00
2013-9-26,74.5,66.6,59.4,37.6,34.5,30.5,38,31,21,29.83,29.67,5,0,5,0.00
2013-9-27,73.4,63.6,54.9,38.3,32.8,28.6,38,32,24,29.99,29.83,4,0,4,0.00
2013-9-28,70.7,61.7,52.7,34.2,31.0,27.2,38,32,23,30.07,29.97,3,0,3,0.00
2013-9-29,71.8,61.3,52.7,35.8,30.5,27.2,38,32,22,29.98,29.84,4,0,4,0.00
2013-9-30,73.6,62.2,53.8,36.9,31.6,28.1,38,32,22,29.91,29.80,2,0,2,0.00
2013-10-1,80.2,65.7,54.0,39.7,34.3,28.3,38,32,22,29.94,29.82,2,0,2,0.00
2013-10-2,82.0,69.4,59.5,40.2,36.3,33.1,38,30,19,29.94,29.83,3,0,3,0.00
2013-10-3,83.7,71.0,61.7,42.4,38.4,34.9,37,31,20,29.94,29.85,3,0,3,0.00
2013-10-4,84.2,71.9,63.3,43.3,39.7,36.7,38,32,21,29.94,29.84,3,0,3,0.00
2013-10-5,86.9,73.9,63.5,45.8,40.5,36.8,38,31,20,29.92,29.83,2,0,2,0.00
2013-10-6,83.7,73.7,66.0,46.4,43.1,38.3,39,34,25,29.87,29.73,4,0,4,0.00
2013-10-7,73.9,71.6,64.0,47.4,44.7,37.9,39,38,36,29.79,29.65,3,1,3,0.31
2013-10-8,64.0,60.7,59.4,37.9,28.6,25.5,38,30,27,30.00,29.78,4,0,4,0.01
2013-10-9,63.1,59.5,55.2,32.7,29.6,26.4,38,32,29,29.99,29.89,10,1,10,0.04
2013-10-10,61.3,57.5,54.1,36.0,32.1,28.3,39,38,36,29.89,29.74,6,1,6,0.14
2013-10-11,68.7,63.1,59.2,38.3,36.1,34.3,39,37,31,29.78,29.71,4,0,4,0.02
2013-10-12,68.4,64.9,61.5,40.1,37.8,35.7,39,37,34,29.88,29.75,4,0,4,0.01
2013-10-13,68.2,64.8,62.4,39.8,38.3,36.9,39,37,35,30.00,29.87,4,0,4,0.06
2013-10-14,65.7,62.8,57.9,39.6,36.7,32.1,40,38,35,30.04,29.98,4,0,4,0.12
2013-10-15,70.9,62.6,55.4,37.7,34.2,30.4,39,35,28,30.01,29.86,4,0,4,0.00
2013-10-16,68.7,65.4,61.9,39.1,37.2,35.5,38,35,32,29.87,29.76,2,0,2,0.00
2013-10-17,75.9,67.3,60.4,42.1,38.5,35.4,39,35,28,29.78,29.65,3,0,3,0.00
2013-10-18,68.5,63.6,57.9,39.7,31.7,24.6,38,30,22,29.85,29.69,4,0,4,0.00
2013-10-19,70.7,64.6,60.8,40.8,35.8,31.4,36,34,32,29.78,29.62,2,0,2,0.00
2013-10-20,61.5,55.6,52.3,26.8,26.0,24.3,36,32,24,29.86,29.78,2,0,2,0.01
2013-10-21,66.7,55.5,42.3,28.5,24.8,16.7,37,31,21,29.97,29.81,2,0,2,0.00
2013-10-22,63.9,58.2,53.1,34.5,30.6,25.8,38,35,33,29.82,29.61,2,0,2,0.00
2013-10-23,66.6,59.7,48.9,35.1,25.9,11.9,39,29,15,29.81,29.50,8,1,8,0.00
2013-10-24,59.0,48.1,37.6,17.3,14.3,11.0,34,26,17,29.98,29.81,7,0,7,0.00
2013-10-25,54.7,47.1,37.4,14.9,10.8,6.0,31,23,15,30.17,29.98,8,0,8,0.00
2013-10-26,58.5,44.4,31.1,17.1,11.7,6.7,36,27,16,30.17,29.89,3,0,3,0.00
2013-10-27,66.6,53.6,41.9,24.2,19.0,14.4,34,26,17,29.93,29.85,4,0,4,0.00
2013-10-28,65.7,56.4,47.5,31.4,26.9,20.5,36,32,26,30.07,29.92,2,0,2,0.00
2013-10-29,70.9,59.3,50.9,35.0,30.2,25.7,38,33,24,30.14,30.04,3,0,3,0.00
2013-10-30,72.9,63.5,55.9,36.9,33.0,28.6,38,32,24,30.10,29.97,2,0,2,0.00
2013-10-31,75.6,65.8,57.4,39.1,33.8,30.6,37,31,23,30.00,29.74,5,1,5,0.00
2013-11-1,73.8,68.7,62.1,41.7,40.3,36.8,39,35,30,29.74,29.48,6,1,6,0.76
2013-11-2,69.6,61.5,51.6,36.3,29.7,20.8,39,31,17,29.75,29.51,8,0,8,0.01
2013-11-3,62.1,51.5,42.8,22.6,18.2,15.1,35,27,17,30.17,29.75,6,0,6,0.00
2013-11-4,55.2,46.3,38.1,17.5,13.4,10.6,34,27,18,30.35,30.16,5,0,5,0.00
2013-11-5,58.8,49.7,39.6,26.0,19.4,11.2,33,30,26,30.34,30.22,5,0,5,0.00
2013-11-6,70.7,57.8,46.2,34.0,28.0,21.4,37,32,23,30.23,29.91,3,0,3,0.00
2013-11-7,68.4,61.1,46.8,39.5,30.9,11.6,39,32,20,29.92,29.73,9,0,9,0.05
2013-11-8,56.5,46.4,38.1,12.7,9.5,4.2,30,23,12,30.13,29.90,7,0,7,0.00
2013-11-9,58.6,45.7,31.8,16.4,11.9,6.7,35,26,14,30.18,29.99,3,0,3,0.00
2013-11-10,71.4,54.0,39.7,21.9,15.2,8.6,34,23,10,30.04,29.86,7,0,7,0.00
2013-11-11,58.6,47.1,35.2,12.9,10.0,6.5,31,22,13,30.16,29.94,3,0,3,0.00
2013-11-12,61.5,43.7,35.4,18.4,12.2,-0.6,34,28,17,30.22,29.85,8,0,8,0.01
2013-11-13,44.8,35.0,27.9,0.7,-1.5,-5.1,29,21,13,30.33,30.21,6,0,6,0.00
2013-11-14,57.4,39.7,25.9,7.4,3.0,-0.2,33,23,10,30.28,30.14,4,0,4,0.00
2013-11-15,60.1,47.3,32.5,24.0,14.7,3.5,34,27,18,30.17,30.01,2,0,2,0.01
2013-11-16,69.8,58.0,51.1,34.5,28.9,24.0,37,33,26,30.08,30.00,4,0,4,0.00
2013-11-17,72.0,62.6,53.4,41.3,34.3,27.8,39,35,27,30.02,29.70,3,0,3,0.08
2013-11-18,75.7,66.9,55.8,42.8,31.5,8.8,39,28,14,29.78,29.59,8,1,8,0.04
2013-11-19,57.7,49.7,42.4,10.7,8.8,6.0,25,19,13,30.11,29.77,7,1,7,0.00
2013-11-20,55.6,46.1,38.8,16.2,11.3,6.8,31,24,18,30.25,30.11,3,0,3,0.00
2013-11-21,62.1,51.2,43.2,26.6,20.2,14.6,32,29,24,30.30,30.18,4,0,4,0.00
2013-11-22,71.6,60.1,48.4,36.6,29.7,21.6,37,31,27,30.19,29.89,4,0,4,0.04
2013-11-23,61.9,56.2,43.7,35.7,23.2,1.8,39,29,16,29.98,29.84,6,0,6,0.04
2013-11-24,43.5,34.5,25.9,4.0,-8.9,-17.2,24,15,10,30.34,29.97,9,1,9,0.00
2013-11-25,45.0,32.6,21.4,-1.9,-6.6,-11.5,30,19,10,30.39,30.18,3,0,3,0.00
2013-11-26,66.6,47.8,37.2,40.9,16.2,-5.8,40,29,15,30.18,29.36,5,1,6,0.41
2013-11-27,56.5,41.0,30.4,31.0,15.4,-2.3,40,35,24,29.97,29.30,10,1,10,0.70
2013-11-28,45.0,33.4,23.5,3.7,0.1,-4.8,32,24,15,30.29,29.97,7,0,7,0.01
2013-11-29,52.9,37.7,27.0,9.3,4.6,1.8,34,26,15,30.43,30.27,4,0,4,0.00
2013-11-30,50.9,37.8,28.4,12.4,6.6,1.0,33,27,20,30.44,30.17,4,0,4,0.00
2013-12-1,60.3,43.4,29.3,17.9,11.5,4.5,35,28,16,30.17,29.82,4,0,4,0.00
2013-12-2,61.3,48.0,40.8,23.3,17.6,14.0,35,30,20,29.83,29.62,2,0,2,0.00
2013-12-3,57.2,47.3,35.8,23.1,17.8,10.8,36,31,24,29.80,29.67,5,0,5,0.02
2013-12-4,65.1,57.6,52.9,32.8,27.8,22.1,36,32,28,29.91,29.78,3,0,3,0.00
2013-12-5,67.5,61.9,53.8,39.5,35.6,25.2,40,37,35,30.19,29.85,4,0,4,0.00
2013-12-6,79.3,70.9,65.1,41.0,39.0,37.5,37,32,24,29.89,29.77,8,2,8,0.00
2013-12-7,69.6,50.9,43.7,40.0,22.9,11.9,38,33,28,30.25,29.80,7,1,7,0.20
2013-12-8,43.7,37.1,34.9,12.5,11.3,8.7,38,34,27,30.26,30.09,3,0,3,0.11
2013-12-9,46.4,40.3,35.1,23.2,17.3,12.0,40,39,38,30.09,29.86,3,0,3,0.18
2013-12-10,49.8,44.2,30.2,24.9,19.5,5.9,40,37,29,30.13,29.71,7,0,7,0.33
2013-12-11,50.4,36.4,27.0,11.4,6.5,3.1,37,29,16,30.27,30.09,7,0,7,0.00
2013-12-12,47.1,35.6,27.5,6.4,1.8,-7.3,35,25,10,30.22,30.07,8,0,8,0.00
2013-12-13,52.5,37.3,24.6,9.5,3.0,-1.2,33,25,11,30.20,30.07,4,0,4,0.00
2013-12-14,48.2,42.9,39.9,19.6,13.5,4.5,38,30,19,30.10,29.56,4,0,4,0.60
2013-12-15,55.2,44.1,33.4,24.3,15.6,6.3,39,32,20,29.88,29.50,7,1,7,0.04
2013-12-16,57.0,41.8,29.3,15.2,10.8,5.4,36,28,18,29.99,29.87,4,0,4,0.00
2013-12-17,62.4,48.8,34.9,18.1,14.0,9.7,35,25,16,29.93,29.69,8,1,8,0.00
2013-12-18,52.0,42.3,32.4,15.6,1.9,-5.2,29,19,10,30.09,29.83,9,1,9,0.00
2013-12-19,63.0,46.0,30.9,9.3,5.3,2.3,30,20,10,30.13,30.03,5,1,5,0.00
2013-12-20,67.5,54.6,43.9,30.0,21.1,7.7,32,27,19,30.06,29.93,5,0,5,0.00
2013-12-21,73.8,62.8,52.5,40.5,31.8,23.2,34,31,25,29.96,29.85,7,1,7,0.00
2013-12-22,79.7,71.6,64.8,41.6,39.5,35.7,38,31,24,29.92,29.82,8,2,8,0.17
2013-12-23,68.0,61.1,46.6,42.8,35.6,19.0,40,38,33,29.96,29.80,8,1,8,0.77
2013-12-24,48.6,42.5,30.7,19.0,8.4,-6.3,33,25,18,30.25,29.92,9,1,9,0.01
2013-12-25,41.9,32.1,24.8,-0.2,-5.1,-9.5,28,20,12,30.35,30.19,3,0,3,0.00
2013-12-26,53.1,37.0,28.9,15.1,8.5,0.0,35,30,22,30.19,30.04,2,0,2,0.06
2013-12-27,53.1,38.5,28.2,9.0,4.9,0.8,34,25,12,30.26,30.16,3,0,3,0.01
2013-12-28,60.3,43.2,27.5,16.3,8.1,2.4,35,25,11,30.21,29.96,3,0,3,0.00
2013-12-29,63.0,50.1,43.7,38.1,23.8,12.7,40,36,23,29.95,29.50,7,1,7,1.13
2013-12-30,54.7,45.6,36.9,24.8,18.3,13.7,39,34,25,29.94,29.73,4,0,4,0.00
2013-12-31,51.3,42.9,33.8,15.5,9.5,2.1,33,26,14,30.16,29.91,8,1,8,0.00
2014-1-1,52.9,40.8,32.5,11.4,6.9,1.3,33,25,13,30.22,29.95,4,0,4,0.00
2014-1-2,48.9,44.1,39.2,22.2,16.4,10.1,38,32,28,29.95,29.38,8,0,8,0.24